This is the latest recevied weather packets stored in our database for station/object VK1KCM-5. If no packets are shown the sender has not sent any weather packets the latest 10 day(s).
| Time | Temp. | Humidity | Pressure | Rain* | Wind** | Luminosity | Snow |
|---|---|---|---|---|---|---|---|
| 1787873913 | 8.89° C | 80% | 1027.1 hPa | 0 mm | - | - | - |
| 1787873633 | 8.33° C | 83% | 1027.3 hPa | 0 mm | - | - | - |
| 1787873362 | 7.78° C | 84% | 1027.4 hPa | 0 mm | - | - | - |
| 1787873102 | 7.78° C | 86% | 1027.6 hPa | 0 mm | - | - | - |
| 1787872806 | 7.78° C | 85% | 1027.4 hPa | 0 mm | - | - | - |
| 1787872515 | 7.22° C | 87% | 1027.5 hPa | 0 mm | - | - | - |
| 1787872262 | 7.22° C | 87% | 1027.5 hPa | 0 mm | - | - | - |
| 1787872012 | 7.22° C | 86% | 1027.6 hPa | 0 mm | - | - | - |
| 1787871747 | 7.78° C | 87% | 1027.7 hPa | 0 mm | - | - | - |
| 1787871462 | 7.22° C | 87% | 1027.5 hPa | 0 mm | - | - | - |
| 1787871203 | 7.22° C | 88% | 1027.7 hPa | 0 mm | - | - | - |
| 1787870952 | 7.22° C | 89% | 1027.6 hPa | 0 mm | - | - | - |
| 1787870667 | 6.67° C | 91% | 1027.9 hPa | 0 mm | - | - | - |
| 1787870375 | 6.11° C | 93% | 1027.8 hPa | 0 mm | - | - | - |
| 1787870103 | 6.11° C | 95% | 1027.9 hPa | 0 mm | - | - | - |
| 1787869827 | 6.11° C | 96% | 1028.1 hPa | 0 mm | - | - | - |
| 1787869568 | 6.11° C | 96% | 1028.1 hPa | 0 mm | - | - | - |
| 1787869274 | 6.11° C | 97% | 1028.1 hPa | 0 mm | - | - | - |
| 1787869008 | 5.56° C | 98% | 1027.8 hPa | 0 mm | - | - | - |
| 1787868747 | 5.56° C | 99% | 1028.1 hPa | 0 mm | - | - | - |
| 1787868458 | 5.56° C | 99% | 1028.1 hPa | 0 mm | - | - | - |
| 1787868214 | 5.56° C | 99% | 1027.8 hPa | 0 mm | - | - | - |
| 1787867952 | 5.56° C | 99% | 1028.1 hPa | 0 mm | - | - | - |
| 1787867707 | 5° C | 99% | 1028.1 hPa | 0 mm | - | - | - |
| 1787867442 | 5° C | 99% | 1027.9 hPa | 0 mm | - | - | - |
* Rain latest hour (hover to see other rain measurements)
** Current wind speed in m/s (hover to see current wind gust speed)